Tracking 28790 objects as of 19-Apr-2024
HD Live streaming from Space Station
objects crossing your sky now

ARIANE 5 R/B

Track ARIANE 5 R/B now!


NORAD ID: 33754
Int'l Code: 2009-008F
Perigee: 303.5 km
Apogee: 33,354.1 km
Inclination: 2.5 °
Period: 586.1 minutes
Semi major axis: 23199 km
RCS: 21.2292 m2 (large)
Launch date: February 12, 2009
Source: France (FR)
Launch site: FRENCH GUIANA (FRGUI)

Note: This is a ROCKET BODY
Your satellite tracking list
Your tracking list is empty




NASA's NSSDC Master Catalog

Two Line Element Set (TLE):
1 33754U 09008F   24109.82599313  .00001668  00000-0  10966-2 0  9990
2 33754   2.5360  37.7711 7123043 294.4393   9.6091  2.45684050130755
Source of the keplerian elements: AFSPC